sat.trackr.live / text

‹ back to catalog

HAWK-13A

NORAD 67392 · 2026-004AF

PAYLOAD ACTIVE UNKNOWN

§ Identity

Operator
Country
US
Launch date
2026-01-11
Launch site
AFWTR
Launch vehicle
Mass (kg)
RCS (m²)

External: N2YO · Heavens-Above · Gunter

§ Orbital elements

Epoch: 2026-09-20T22:41:49.731936Z

Period
94.75 min
Inclination
97.4508°
Eccentricity
0.0005766
Mean motion
15.19803417 rev/d
Perigee alt
502.5 km
Apogee alt
510.4 km
Semi-major
6,884.6 km
B*
1.3149e-4
RAAN
261.5186°
Arg perigee
18.6380°
Mean anomaly
341.5065°
Rev number
3,830

§ Raw data

HAWK-13A1 67392U 26004AF  26263.94571449  .00002748  00000+0  13149-3 0  99922 67392  97.4508 261.5186 0005766  18.6380 341.5065 15.19803417 38308

JSON: /api/v1/satellites/67392 · /tle

For live sub-satellite position, see the globe view (requires WebGL).

§ Visibility from observer

Set your observer location to see the next 7 days of passes ≥ 10°. The values pass through the URL so the page stays shareable.

No JS? Fill the form by hand. The geolocation button needs JavaScript.